CDT,Max TemperatureF,Mean TemperatureF,Min TemperatureF,Max Dew PointF,MeanDew PointF,Min DewpointF,Max Humidity, Mean Humidity, Min Humidity, Max Sea Level PressureIn, Mean Sea Level PressureIn, Min Sea Level PressureIn, Max VisibilityMiles, Mean VisibilityMiles, Min VisibilityMiles, Max Wind SpeedMPH, Mean Wind SpeedMPH, Max Gust SpeedMPH,PrecipitationIn, CloudCover, Events, WindDirDegrees
2013-4-1,63,50,36,44,38,32,100,72,43,30.14,30.04,29.94,10,7,1,20,7,23,0.00,1,,5
2013-4-2,48,45,42,33,28,26,67,56,45,30.29,30.24,30.15,10,10,10,14,8,17,T,7,,42
2013-4-3,52,47,41,30,25,21,62,49,35,30.26,30.21,30.15,10,10,10,16,10,22,T,6,Rain,58
2013-4-4,47,44,41,45,41,31,96,75,53,30.14,30.05,30.00,10,7,2,10,6,13,0.50,8,Rain,43
2013-4-5,67,53,39,45,42,36,100,67,34,30.17,30.11,30.05,10,5,0,12,3,20,0.00,3,Fog,331
2013-4-6,75,56,37,43,39,36,100,63,25,30.12,30.04,29.94,10,10,10,20,8,25,0.00,0,,187
2013-4-7,74,66,58,54,49,43,72,57,41,30.04,29.99,29.94,10,10,10,17,10,25,0.00,4,,197
2013-4-8,79,68,57,57,54,49,78,60,42,30.00,29.94,29.88,10,10,10,21,9,28,0.00,4,,182
2013-4-9,80,73,66,64,62,57,81,70,58,30.04,29.97,29.89,10,10,10,17,9,26,T,3,Rain,167
2013-4-10,83,76,69,64,62,59,79,63,47,29.99,29.87,29.71,10,10,10,20,10,26,0.01,4,Rain,184
2013-4-11,73,58,43,64,56,41,100,84,68,29.79,29.72,29.65,10,5,1,16,7,22,3.56,8,Rain-Thunderstorm,258
2013-4-12,66,51,36,43,40,37,100,70,40,30.01,29.90,29.81,10,10,10,20,8,28,0.00,0,,251
2013-4-13,70,55,40,45,40,34,89,62,35,30.12,30.03,29.95,10,10,10,13,3,15,0.00,0,,40
2013-4-14,70,59,48,52,47,42,71,57,42,29.95,29.85,29.77,10,10,10,23,7,33,0.00,3,,148
2013-4-15,81,70,58,60,56,51,86,66,45,29.95,29.89,29.85,10,10,10,16,8,21,0.00,3,,167
2013-4-16,84,76,68,70,66,60,90,76,62,30.08,30.02,29.94,10,10,8,17,8,23,0.00,5,,175
2013-4-17,87,78,68,69,66,64,90,71,51,30.09,30.00,29.88,10,10,10,18,8,24,0.00,3,,187
2013-4-18,83,65,46,67,59,44,93,72,51,29.88,29.75,29.60,10,8,2,29,14,37,1.90,5,Rain-Thunderstorm,218
2013-4-19,51,45,38,45,36,31,93,72,50,30.14,29.97,29.80,10,10,10,18,10,25,0.01,6,Rain,272
2013-4-20,65,49,33,41,36,32,100,67,34,30.29,30.23,30.15,10,10,10,12,4,15,0.00,0,,16
2013-4-21,68,54,39,40,37,35,86,60,34,30.38,30.29,30.22,10,10,10,13,5,18,0.00,0,,74
2013-4-22,77,60,43,46,45,43,77,61,44,30.23,30.15,30.06,10,10,10,16,8,,0.00,0,,136
2013-4-23,75,63,51,59,55,46,86,68,49,30.08,30.01,29.92,10,10,10,21,10,28,0.00,5,,187
2013-4-24,68,51,34,63,47,35,100,82,63,30.31,30.07,29.87,10,7,1,23,8,29,1.43,7,Rain-Thunderstorm,308
2013-4-25,66,49,32,44,36,30,100,67,34,30.40,30.34,30.29,10,7,1,8,1,14,0.00,0,,250
2013-4-26,64,53,41,50,46,38,96,74,51,30.45,30.32,30.24,10,10,8,15,5,23,0.42,6,Rain-Thunderstorm,71
2013-4-27,69,61,52,64,56,50,100,92,84,30.28,30.06,29.90,10,8,1,25,6,51,2.77,7,Rain-Thunderstorm,122
2013-4-28,63,55,47,61,54,46,100,86,72,29.99,29.96,29.93,10,9,1,12,5,15,T,6,,291
2013-4-29,77,60,42,57,47,41,100,73,46,30.03,29.97,29.90,10,5,0,7,1,13,0.00,1,Fog,176
2013-4-30,81,65,48,58,50,46,100,68,35,29.99,29.94,29.91,10,7,1,14,3,18,0.00,0,,134